Location: Bats
(43.6587°N, 0.4584°W)
Time: 15:02:37
(UTC+00:00)

Cosmos 1470 Rocket - Visible Passes

Search period start: 11 April 2026 00:00
Search period end: 21 April 2026 00:00
Orbit: 596 x 626 km, 82.5° (Epoch: 11 April)

Date Brightness Start Highest point End Pass type
(mag) Time Alt. Az. Time Alt. Az. Time Alt. Az.
11 Apr 3.6 19:51:33 10° S 19:55:57 80° W 20:00:19 10° N visible
12 Apr 4.7 20:06:42 10° SSW 20:10:54 45° WNW 20:15:06 10° N visible
13 Apr 5.8 20:22:13 10° SW 20:25:56 26° WNW 20:29:39 10° NNW visible
14 Apr 6.6 20:38:19 10° WSW 20:41:04 16° WNW 20:43:48 10° NNW visible
15 Apr 3.5 19:13:34 10° S 19:17:56 85° E 19:22:19 10° N visible
16 Apr 4.4 19:28:36 10° SSW 19:32:52 54° W 19:37:09 10° N visible
17 Apr 5.6 19:44:00 10° SW 19:47:53 31° WNW 19:51:46 10° NNW visible
18 Apr 6.6 19:59:53 10° WSW 20:02:58 19° WNW 20:06:05 10° NNW visible
19 Apr 7.4 04:29:06 10° NE 04:30:41 12° ENE 04:32:17 10° E visible
19 Apr 7.1 20:16:46 10° W 20:18:10 11° WNW 20:19:33 10° NW visible
20 Apr 6.8 04:42:43 10° NNE 04:45:52 20° ENE 04:49:00 10° ESE visible
